Dumas, Arkansas, United States (71639)
Lat: 33.89N, Lon: 91.49W
Wx Zone: ARZ065
Local Info
Past Weather Observations for Wednesday, February 25, 2015

NOTE: This archive is for the closest National Weather Service station to Dumas. Information may differ from the station used for current weather conditions.

Click here for Long-term Archive

Time Weather Temperature Dewpoint Humidity Pressure Winds Precip Visibility
23:53
Overcast
Fog And Mist
34°F / 1°C 30°F / -1°C 87% 29.95 in
(1014 mb)
WNW 5.8 mph
(WNW 9 kph)
- 4SM
23:05
Overcast
34°F / 1°C 30°F / -1°C 87% 29.95 in
(1014 mb)
W 3.5 mph
(W 6 kph)
- 7SM
22:53
Overcast
34°F / 1°C 30°F / -1°C 87% 29.95 in
(1014 mb)
Calm - 7SM
21:53
Overcast
34°F / 1°C 30°F / -1°C 87% 29.92 in
(1013 mb)
Calm - 8SM
21:45
Overcast
34°F / 1°C 30°F / -1°C 87% 29.92 in
(1013 mb)
Calm - 9SM
20:53
Overcast
34°F / 1°C 30°F / -1°C 87% 29.89 in
(1012 mb)
Calm - 8SM
20:10
Overcast
34°F / 1°C 30°F / -1°C 87% 29.89 in
(1012 mb)
Calm - 10SM
19:53
Overcast
34°F / 1°C 30°F / -1°C 87% 29.89 in
(1012 mb)
Calm - 10SM
19:41
Overcast
34°F / 1°C 30°F / -1°C 87% 29.89 in
(1012 mb)
NW 3.5 mph
(NW 6 kph)
- 10SM
18:53
Overcast
34°F / 1°C 30°F / -1°C 87% 29.83 in
(1010 mb)
NW 4.6 mph
(NW 7 kph)
0.00 in
(0.00 mm)
10SM
17:53
Overcast
Light Snow
34°F / 1°C 30°F / -1°C 87% 29.8 in
(1009 mb)
ENE 6.9 mph
(ENE 11 kph)
0.01 in
(0.25 mm)
5SM
17:47
Overcast
Light Snow
34°F / 1°C 30°F / -1°C 87% 29.8 in
(1009 mb)
NE 5.8 mph
(NE 9 kph)
0.01 in
(0.25 mm)
3SM
17:32
Overcast
Light Snow
34°F / 1°C 30°F / -1°C 87% 29.8 in
(1009 mb)
NNE 4.6 mph
(NNE 7 kph)
0.01 in
(0.25 mm)
2SM
17:22
Overcast
Light Snow
34°F / 1°C 30°F / -1°C 87% 29.8 in
(1009 mb)
Variable 3.5 mph
(Variable 6 kph)
0.01 in
(0.25 mm)
2SM
17:09
Overcast
Light Snow
34°F / 1°C 30°F / -1°C 87% 29.8 in
(1009 mb)
Variable 3.5 mph
(Variable 6 kph)
0.01 in
(0.25 mm)
1 1/2SM
17:01
Overcast
Light Snow
34°F / 1°C 30°F / -1°C 87% 29.8 in
(1009 mb)
Variable 3.5 mph
(Variable 6 kph)
0.00 in
(0.00 mm)
2SM
16:53
Overcast
Light Snow
34°F / 1°C 30°F / -1°C 87% 29.8 in
(1009 mb)
N 4.6 mph
(N 7 kph)
0.00 in
(0.00 mm)
3SM
16:40
Overcast
Light Snow
34°F / 1°C 30°F / -1°C 87% 29.8 in
(1009 mb)
NE 3.5 mph
(NE 6 kph)
0.00 in
(0.00 mm)
4SM
16:31
Overcast
Light Snow
34°F / 1°C 30°F / -1°C 87% 29.8 in
(1009 mb)
NE 4.6 mph
(NE 7 kph)
0.00 in
(0.00 mm)
2 1/2SM
16:00
Overcast
Light Snow
34°F / 1°C 30°F / -1°C 87% 29.83 in
(1010 mb)
Calm 0.00 in
(0.00 mm)
3SM
15:53
Overcast
Light Snow
34°F / 1°C 30°F / -1°C 87% 29.83 in
(1010 mb)
N 3.5 mph
(N 6 kph)
0.00 in
(0.00 mm)
2 1/2SM
15:19
Overcast
Light Snow
34°F / 1°C 30°F / -1°C 87% 29.83 in
(1010 mb)
NNW 3.5 mph
(NNW 6 kph)
0.00 in
(0.00 mm)
4SM
14:53
Overcast
34°F / 1°C 30°F / -1°C 87% 29.83 in
(1010 mb)
Calm 0.01 in
(0.25 mm)
10SM
14:11
Overcast
Light Snow
34°F / 1°C 30°F / -1°C 87% 29.86 in
(1011 mb)
Variable 3.5 mph
(Variable 6 kph)
0.01 in
(0.25 mm)
3SM
13:53
Overcast
Light Snow
34°F / 1°C 30°F / -1°C 87% 29.86 in
(1011 mb)
Calm 0.03 in
(0.76 mm)
1SM
13:29
Overcast
Light Snow
34°F / 1°C 30°F / -1°C 87% 29.89 in
(1012 mb)
Calm 0.03 in
(0.76 mm)
1SM
13:20
Overcast
Light Snow
34°F / 1°C 30°F / -1°C 87% 29.89 in
(1012 mb)
NE 3.5 mph
(NE 6 kph)
0.02 in
(0.51 mm)
3/4SM
12:53
Overcast
Snow
34°F / 1°C 30°F / -1°C 87% 29.89 in
(1012 mb)
NE 3.5 mph
(NE 6 kph)
0.08 in
(2.03 mm)
1/2SM
12:30
Overcast
Snow
34°F / 1°C 30°F / -1°C 87% 29.92 in
(1013 mb)
ENE 3.5 mph
(ENE 6 kph)
0.06 in
(1.52 mm)
1/4SM
12:12
Overcast
Snow
34°F / 1°C 30°F / -1°C 87% 29.92 in
(1013 mb)
Calm 0.03 in
(0.76 mm)
1/2SM
11:58
Overcast
Heavy Snow
34°F / 1°C 30°F / -1°C 87% 29.92 in
(1013 mb)
Calm 0.02 in
(0.51 mm)
1/4SM
11:49
Overcast
Heavy Snow
34°F / 1°C 30°F / -1°C 87% 29.92 in
(1013 mb)
Calm 0.10 in
(2.54 mm)
1/4SM
11:48
Overcast
Heavy Snow
34°F / 1°C 30°F / -1°C 87% 29.92 in
(1013 mb)
Calm 0.10 in
(2.54 mm)
1/4SM
11:34
Overcast
Light Snow
34°F / 1°C 30°F / -1°C 87% 29.92 in
(1013 mb)
Calm 0.07 in
(1.78 mm)
3/4SM
11:27
Overcast
Light Snow
34°F / 1°C 30°F / -1°C 87% 29.92 in
(1013 mb)
Calm 0.06 in
(1.52 mm)
2SM
11:10
Overcast
Light Snow
34°F / 1°C 30°F / -1°C 87% 29.92 in
(1013 mb)
Calm 0.03 in
(0.76 mm)
2 1/2SM
10:53
Overcast
Rain
34°F / 1°C 30°F / -1°C 87% 29.92 in
(1013 mb)
N 3.5 mph
(N 6 kph)
0.14 in
(3.56 mm)
3SM
10:37
Overcast
Heavy Rain
34°F / 1°C 30°F / -1°C 87% 29.92 in
(1013 mb)
ENE 4.6 mph
(ENE 7 kph)
0.10 in
(2.54 mm)
2 1/2SM
10:28
Overcast
Rain
34°F / 1°C 30°F / -1°C 87% 29.92 in
(1013 mb)
NE 4.6 mph
(NE 7 kph)
0.06 in
(1.52 mm)
2 1/2SM
10:18
Overcast
Rain
34°F / 1°C 30°F / -1°C 87% 29.95 in
(1014 mb)
Calm 0.04 in
(1.02 mm)
3SM
09:53
Overcast
Light Rain
34°F / 1°C 30°F / -1°C 87% 29.92 in
(1013 mb)
E 3.5 mph
(E 6 kph)
0.08 in
(2.03 mm)
5SM
09:43
Overcast
Light Rain
34°F / 1°C 30°F / -1°C 87% 29.92 in
(1013 mb)
E 6.9 mph
(E 11 kph)
0.07 in
(1.78 mm)
4SM
09:32
Overcast
Rain
34°F / 1°C 30°F / -1°C 87% 29.92 in
(1013 mb)
ENE 5.8 mph
(ENE 9 kph)
0.06 in
(1.52 mm)
2 1/2SM
08:53
Overcast
Rain
34°F / 1°C 30°F / -1°C 87% 29.92 in
(1013 mb)
E 3.5 mph
(E 6 kph)
0.09 in
(2.29 mm)
4SM
08:33
Overcast
Unknown Precip
32°F / 0°C 30°F / -1°C 93% 29.92 in
(1013 mb)
ENE 5.8 mph
(ENE 9 kph)
0.07 in
(1.78 mm)
5SM
07:53
Overcast
Freezing Rain
32°F / 0°C 28°F / -2°C 87% 29.92 in
(1013 mb)
ENE 5.8 mph
(ENE 9 kph)
0.05 in
(1.27 mm)
4SM
07:46
Overcast
Light Freezing Rain
32°F / 0°C 28°F / -2°C 87% 29.95 in
(1014 mb)
E 3.5 mph
(E 6 kph)
0.04 in
(1.02 mm)
5SM
07:34
Overcast
Freezing Rain
32°F / 0°C 28°F / -2°C 87% 29.98 in
(1015 mb)
Calm 0.03 in
(0.76 mm)
4SM
07:16
Overcast
Light Freezing Rain
32°F / 0°C 30°F / -1°C 93% 29.98 in
(1015 mb)
Calm 0.00 in
(0.00 mm)
6SM
06:53
Overcast
Unknown Precip
32°F / 0°C 28°F / -2°C 87% 29.98 in
(1015 mb)
Calm 0.01 in
(0.25 mm)
9SM
05:53
Overcast
Unknown Precip
32°F / 0°C 28°F / -2°C 87% 29.95 in
(1014 mb)
E 3.5 mph
(E 6 kph)
0.00 in
(0.00 mm)
10SM
04:53
Clear
32°F / 0°C 27°F / -3°C 80% 29.98 in
(1015 mb)
Calm - 10SM
03:53
Clear
32°F / 0°C 27°F / -3°C 80% 30.01 in
(1016 mb)
Calm - 10SM
02:53
Clear
32°F / 0°C 27°F / -3°C 80% 29.98 in
(1015 mb)
Calm - 10SM
01:53
Clear
30°F / -1°C 27°F / -3°C 86% 30.01 in
(1016 mb)
Calm - 10SM
00:53
Clear
32°F / 0°C 27°F / -3°C 80% 30.01 in
(1016 mb)
Calm - 10SM
Time Weather Temperature Dewpoint Humidity Pressure Winds Precip Visibility


Weather for websites

WeatherForYou.com, LLC is not responsible for any damages or problems caused by this service. Current weather conditions are obtained from the closest station including government and personal stations which may have varying degrees of accuracy. Weather forecasts are derived from the NOAA NDFD. Like all things, this site belongs to Jesus Christ... He just trusts me to maintain it. If you have any questions or comments email webmaster@weatherforyou.com

Copyright © 2015, WeatherForYou.com LLC. All rights reserved.